Le nostre stazioni meteo in Italia

Pubblicità
Il mio iltempo24.it
Forli, Italia (16147): Temperatura & dewpoint: 13.06.2019 01:00:00 - 19.06.2019 01:00:00 (CEST)Forli, Italia (16147): velocità del vento: 13.06.2019 01:00:00 - 19.06.2019 01:00:00 (CEST)Forli, Italia (16147): direzione del vento: 13.06.2019 01:00:00 - 19.06.2019 01:00:00 (CEST)Forli, Italia (16147): reduced air pressure: 13.06.2019 01:00:00 - 19.06.2019 01:00:00 (CEST)Forli, Italia (16147): visibility: 13.06.2019 01:00:00 - 19.06.2019 01:00:00 (CEST)Forli, Italia (16147): precipitazioni: 13.06.2019 01:00:00 - 19.06.2019 01:00:00 (CEST)
Data & Tempo tt [°C] td [°C] ff [km/h] ff [kn] dd ppp [hPa] vv [km] rr [mm]
19.06.2019 01:00:00 - - - - - - - -
19.06.2019 00:00:00 - - - - - - - -
18.06.2019 23:00:00 24,4 17,1 4 2 S 1011,2 - 0,0
18.06.2019 22:00:00 25,5 17,4 1 1 S 1011,4 - 0,0
18.06.2019 21:00:00 26,1 17,7 4 2 ESE 1011,1 - 0,0
18.06.2019 20:00:00 27,2 17,4 11 6 E 1010,9 - 0,0
18.06.2019 19:00:00 28,5 17,4 12 6 E 1010,5 - 0,0
18.06.2019 18:00:00 29,9 15,2 2 1 - 1010,3 10 0,0
18.06.2019 17:00:00 30,4 14,5 2 1 - 1010,6 10 0,0
18.06.2019 16:00:00 30,0 14,5 5 3 - 1011,1 10 0,0
18.06.2019 15:00:00 30,2 14,3 5 3 - 1011,6 10 0,0
18.06.2019 14:00:00 29,4 15,5 5 3 - 1012,0 10 0,0
18.06.2019 13:00:00 28,9 14,3 8 4 ONO 1012,3 10 0,0
18.06.2019 12:00:00 27,9 13,8 8 4 ONO 1012,5 10 0,0
18.06.2019 11:00:00 26,9 14,3 9 5 O 1012,8 10 0,0
18.06.2019 10:00:00 25,8 15,5 9 5 ONO 1013,0 10 0,0
18.06.2019 09:00:00 24,0 15,0 5 3 O 1013,3 - 0,0
18.06.2019 08:00:00 21,6 14,0 3 2 OSO 1013,3 - 0,0
18.06.2019 07:00:00 19,4 13,6 4 2 OSO 1013,1 - 0,0
18.06.2019 06:00:00 18,3 13,8 3 2 SSO 1012,5 - 0,0
18.06.2019 05:00:00 18,3 14,0 5 3 OSO 1012,4 - 0,0
18.06.2019 04:00:00 19,2 14,7 0 0 OSO 1012,7 - 0,0
18.06.2019 03:00:00 19,5 15,2 0 0 SSO 1012,9 - 0,0
18.06.2019 02:00:00 19,3 15,6 1 1 OSO 1013,2 - 0,0
18.06.2019 01:00:00 20,4 15,6 0 0 SSO 1013,1 - 0,0
18.06.2019 00:00:00 21,5 15,8 1 0 SSO 1013,1 - 0,0
17.06.2019 23:00:00 22,5 15,6 6 4 S 1012,7 - 0,0
17.06.2019 22:00:00 24,0 15,5 4 2 S 1012,4 - 0,0
17.06.2019 21:00:00 24,7 15,3 5 3 SE 1012,0 - 0,0
17.06.2019 20:00:00 25,7 14,8 7 4 ESE 1011,7 - 0,0
17.06.2019 19:00:00 26,6 14,4 13 7 ESE 1011,7 - 0,0
17.06.2019 18:00:00 27,4 14,1 9 5 E 1011,8 10 0,0
17.06.2019 17:00:00 27,5 14,5 13 7 E 1012,0 10 0,0
17.06.2019 16:00:00 27,4 14,8 13 7 ENE 1012,4 10 0,0
17.06.2019 15:00:00 27,8 15,8 8 4 NE 1012,7 10 0,0
17.06.2019 14:00:00 26,8 15,8 15 8 NE 1012,8 10 0,0
17.06.2019 13:00:00 27,4 16,4 8 4 NNE 1012,9 10 0,0
17.06.2019 12:00:00 26,5 16,1 4 2 - 1013,0 10 0,0
17.06.2019 11:00:00 26,2 15,3 4 2 - 1013,2 10 0,0
17.06.2019 10:00:00 25,3 15,3 3 1 NE 1013,3 10 0,0
17.06.2019 09:00:00 25,5 14,0 2 1 SSO 1013,4 - 0,0
17.06.2019 08:00:00 22,6 13,9 0 0 SSO 1013,1 - 0,0
17.06.2019 07:00:00 19,7 13,4 6 3 SO 1012,4 - 0,0
17.06.2019 06:00:00 19,3 13,0 5 3 SSE 1011,8 - 0,0
17.06.2019 05:00:00 19,2 13,1 5 3 OSO 1011,3 - 0,0
17.06.2019 04:00:00 20,8 12,7 7 4 OSO 1010,8 - 0,0
17.06.2019 03:00:00 21,8 12,6 5 3 S 1010,8 - 0,0
17.06.2019 02:00:00 22,6 13,4 5 3 SSO 1011,0 - 0,0
17.06.2019 01:00:00 23,5 13,9 6 3 SSO 1011,0 - 0,0
17.06.2019 00:00:00 24,0 13,8 9 5 SO 1011,0 - 0,0
16.06.2019 23:00:00 25,0 14,8 6 3 SO 1010,9 - 0,0
16.06.2019 22:00:00 25,9 15,3 6 3 SO 1010,5 - 0,0
16.06.2019 21:00:00 27,4 15,1 6 3 OSO 1009,6 - 0,0
16.06.2019 20:00:00 29,3 12,3 4 2 O 1009,5 - 0,0
16.06.2019 19:00:00 30,5 13,7 9 5 NO 1009,5 - 0,0
16.06.2019 18:00:00 31,0 13,7 6 4 N 1009,2 - 0,0
16.06.2019 17:00:00 30,7 13,5 7 4 NNO 1009,6 - 0,0
16.06.2019 16:00:00 30,4 13,7 8 4 N 1010,1 - 0,0
16.06.2019 15:00:00 30,4 14,1 5 3 NO 1010,4 - 0,0
16.06.2019 14:00:00 29,5 13,7 6 3 NNE 1010,8 - 0,0
16.06.2019 13:00:00 28,4 13,5 6 4 NNO 1011,3 - 0,0
16.06.2019 12:00:00 27,5 12,7 9 5 NNO 1011,4 - 0,0
16.06.2019 11:00:00 26,5 13,9 11 6 NNO 1011,6 - 0,0
16.06.2019 10:00:00 25,2 13,7 8 4 NNO 1011,7 - 0,0
16.06.2019 09:00:00 23,9 14,9 3 2 ONO 1011,6 - 0,0
16.06.2019 08:00:00 22,5 14,3 3 2 O 1011,3 - 0,0
16.06.2019 07:00:00 20,8 13,7 5 3 OSO 1011,0 - 0,0
16.06.2019 06:00:00 21,0 13,2 13 7 SO 1010,8 - 0,0
16.06.2019 05:00:00 21,4 13,6 10 5 SO 1010,7 - 0,0
16.06.2019 04:00:00 22,0 13,9 7 4 SO 1010,8 - 0,0
16.06.2019 03:00:00 22,4 13,7 13 7 SO 1010,9 - 0,0
16.06.2019 02:00:00 22,8 13,6 12 7 SO 1010,9 - 0,0
16.06.2019 01:00:00 23,3 13,2 7 4 OSO 1011,0 - 0,0
16.06.2019 00:00:00 23,9 14,0 7 4 SO 1010,9 - 0,0
15.06.2019 23:00:00 24,4 14,2 10 5 SO 1010,4 - 0,0
15.06.2019 22:00:00 25,3 14,4 6 3 SO 1010,0 - 0,0
15.06.2019 21:00:00 26,5 14,6 10 5 SO 1009,5 - 0,0
15.06.2019 20:00:00 28,4 14,6 11 6 OSO 1009,6 - 0,0
15.06.2019 19:00:00 29,9 16,0 10 6 OSO 1009,5 - 0,0
15.06.2019 18:00:00 30,6 15,5 11 6 O 1009,8 - 0,0
15.06.2019 17:00:00 31,3 15,7 12 6 OSO 1010,0 - 0,0
15.06.2019 16:00:00 30,6 15,8 13 7 O 1010,2 - 0,0
15.06.2019 15:00:00 30,2 15,9 13 7 ONO 1010,4 - 0,0
15.06.2019 14:00:00 30,0 16,1 15 8 ONO 1010,8 - 0,0
15.06.2019 13:00:00 29,3 15,8 11 6 ONO 1011,1 - 0,0
15.06.2019 12:00:00 29,3 15,4 12 7 O 1011,2 - 0,0
15.06.2019 11:00:00 28,7 14,9 11 6 O 1011,1 - 0,0
15.06.2019 10:00:00 26,7 16,6 13 7 ONO 1011,0 - 0,0
15.06.2019 09:00:00 25,0 17,2 8 4 O 1010,9 - 0,0
15.06.2019 08:00:00 22,3 18,7 11 6 ONO 1010,8 - 0,0
15.06.2019 07:00:00 21,9 18,3 12 7 ONO 1010,4 - 0,0
15.06.2019 06:00:00 21,5 17,5 4 2 O 1010,1 - 0,0
15.06.2019 05:00:00 22,6 17,7 1 0 SO 1009,6 - 0,0
15.06.2019 04:00:00 22,5 17,8 4 2 ESE 1010,5 - 0,0
15.06.2019 03:00:00 23,1 19,3 3 2 SSO 1010,5 - 0,0
15.06.2019 02:00:00 23,5 19,6 1 1 S 1011,0 - 0,0
15.06.2019 01:00:00 23,6 19,7 2 1 ESE 1011,5 - 0,0
15.06.2019 00:00:00 23,9 19,4 0 0 SO 1012,1 - 0,0
14.06.2019 23:00:00 24,1 19,2 3 2 ONO 1012,6 - 0,0
14.06.2019 22:00:00 24,4 18,6 0 0 E 1012,3 - 0,0
14.06.2019 21:00:00 25,3 18,7 2 1 N 1011,6 - 0,0
14.06.2019 20:00:00 25,8 19,2 4 2 E 1011,6 - 0,0
14.06.2019 19:00:00 26,1 19,0 11 6 E 1011,8 - 0,0
14.06.2019 18:00:00 27,0 20,0 11 6 ENE - 10 -
14.06.2019 17:00:00 26,8 17,8 11 6 E 1013,2 10 0,0
14.06.2019 16:00:00 27,0 18,3 15 8 E 1013,4 10 0,0
14.06.2019 15:00:00 29,3 16,5 5 3 - 1013,8 10 0,0
14.06.2019 14:00:00 29,2 12,6 0 0 N 1014,6 10 0,0
14.06.2019 13:00:00 27,9 10,6 4 2 - 1015,3 10 0,0
14.06.2019 12:00:00 26,9 10,1 0 0 N 1015,5 10 0,0
14.06.2019 11:00:00 25,5 8,0 2 1 - 1016,1 10 0,0
14.06.2019 10:00:00 25,0 9,7 4 2 NNO 1015,9 10 0,0
14.06.2019 09:00:00 23,8 7,8 7 4 NO 1016,0 - 0,0
14.06.2019 08:00:00 21,4 13,1 2 1 SO 1015,7 - 0,0
14.06.2019 07:00:00 19,6 12,1 3 2 SO 1015,6 - 0,0
14.06.2019 06:00:00 18,8 11,8 6 4 SSO 1015,2 - 0,0
14.06.2019 05:00:00 19,5 11,3 1 1 S 1014,8 - 0,0
14.06.2019 04:00:00 19,9 11,6 2 1 OSO 1014,5 - 0,0
14.06.2019 03:00:00 19,9 12,9 0 0 SO 1014,1 - 0,0
14.06.2019 02:00:00 20,5 13,9 1 1 SO 1014,2 - 0,0
14.06.2019 01:00:00 20,8 14,2 3 2 SO 1014,5 - 0,0
14.06.2019 00:00:00 21,6 15,2 5 3 OSO 1014,5 - 0,0
13.06.2019 23:00:00 23,1 15,2 1 1 SSO 1013,9 - 0,0
13.06.2019 22:00:00 23,7 14,9 5 3 E 1013,9 - -
13.06.2019 21:00:00 25,3 14,4 4 2 E 1013,2 - 0,0
13.06.2019 20:00:00 26,6 13,0 11 6 E 1013,0 - 0,0
13.06.2019 19:00:00 27,8 10,5 16 8 ESE 1012,6 - 0,0
13.06.2019 18:00:00 28,4 11,0 15 8 E 1012,5 10 0,0
13.06.2019 17:00:00 29,6 11,2 13 7 E 1012,2 10 0,0
13.06.2019 16:00:00 29,7 9,8 13 7 E 1012,2 10 0,0
13.06.2019 15:00:00 29,9 7,7 5 3 - 1012,4 10 0,0
13.06.2019 14:00:00 29,5 7,4 4 2 - 1012,4 10 0,0
13.06.2019 13:00:00 28,0 6,7 2 1 - 1012,7 10 0,0
13.06.2019 12:00:00 26,7 6,7 4 2 - 1012,9 10 0,0
13.06.2019 11:00:00 25,4 5,6 2 1 - 1013,0 10 0,0
13.06.2019 10:00:00 23,7 3,6 5 3 NO 1012,8 10 0,0
13.06.2019 09:00:00 23,0 3,5 6 3 ONO 1012,7 - 0,0
13.06.2019 08:00:00 21,0 6,9 8 4 OSO 1012,2 - 0,0
13.06.2019 07:00:00 19,4 6,2 7 4 SO 1011,7 - 0,0
13.06.2019 06:00:00 19,3 4,6 11 6 O 1011,0 - 0,0
13.06.2019 05:00:00 20,3 5,1 15 8 SO 1010,4 - 0,0
13.06.2019 04:00:00 20,7 7,7 7 4 O 1010,3 - 0,0
13.06.2019 03:00:00 21,9 7,7 17 9 SO 1009,5 - 0,0
13.06.2019 02:00:00 22,2 9,4 10 6 SO 1009,6 - 0,0
13.06.2019 01:00:00 22,2 10,7 11 6 SO 1009,5 - 0,0

tt = Temperatura
td = dewpoint
ff = velocità del vento
dd = direzione del vento
ppp = reduced air pressure
vv = visibility
rr = precipitazioni

Stazioni seguenti

WeatherPro
AMSI
MeteoEarth